Wind_Speed
23 25 25 26 26 26 27 27 26 25 24 22 21 20 19 16 12 9 7 5 7 10 13 16 19 22 25 27 28 30 32 33 35 38 38 39 39 38 37 37 37 36 36
22 23 25 25 26 26 26 26 26 25 24 23 22 21 20 17 15 11 8 5 5 7 10 13 16 19 23 25 26 28 30 32 33 35 37 39 38 37 38 37 37 36 35
21 22 24 25 25 26 26 26 26 25 24 24 23 22 21 19 16 14 10 7 4 4 7 10 13 17 20 23 24 26 28 30 32 33 35 36 37 38 38 38 37 37 37
20 21 23 23 24 25 25 25 25 25 24 24 23 22 21 20 17 15 13 9 6 4 4 6 9 13 16 19 22 24 25 27 29 30 32 33 35 36 37 37 37 37 37
20 20 21 22 23 24 24 24 24 24 24 24 22 22 21 20 18 16 14 11 8 6 4 4 5 9 12 15 18 20 23 25 26 28 30 31 32 33 35 35 36 36 36
19 20 20 21 22 23 23 24 24 23 23 23 23 22 21 20 19 18 15 12 9 7 5 3 3 5 9 12 14 17 20 22 24 26 27 29 30 32 34 35 36 36 36
18 19 20 21 21 22 22 23 23 22 22 23 22 21 21 20 19 18 17 14 10 8 6 4 3 4 6 9 12 14 16 19 21 24 24 26 28 30 33 34 35 36 37
18 19 20 20 21 21 21 22 22 22 21 22 22 21 21 20 19 18 17 15 12 9 7 5 4 4 6 8 10 11 14 16 19 22 24 24 26 27 29 31 33 34 34
18 18 19 20 20 21 21 21 21 21 21 21 21 21 20 20 19 18 17 15 13 11 9 7 5 4 5 7 9 11 12 14 17 20 22 22 23 25 27 29 31 32 33
18 18 19 20 20 20 20 20 21 21 21 21 20 20 20 19 18 17 16 15 13 12 10 8 7 6 5 6 7 9 11 13 15 18 21 22 22 24 25 26 28 29 30
18 18 19 20 20 20 20 20 20 20 21 21 20 20 19 19 18 17 16 15 14 12 11 9 8 7 7 7 8 9 10 12 15 17 19 20 21 23 25 26 28 29 30
18 19 19 20 20 20 20 20 20 20 21 21 20 20 20 19 17 16 16 15 14 13 12 10 9 8 8 8 9 10 11 12 13 15 18 20 21 23 25 26 27 29 30
19 19 20 20 20 20 20 21 21 21 21 21 20 20 20 19 18 17 16 15 14 14 13 12 11 10 10 10 10 11 12 13 14 15 17 19 21 23 24 26 27 28 29
20 20 20 20 20 20 21 21 22 22 21 21 20 20 19 19 18 17 16 16 15 14 14 13 13 12 12 12 12 12 13 14 15 16 17 19 20 22 24 26 27 28 29
21 21 21 21 21 21 22 22 22 23 22 22 21 21 20 19 18 18 17 17 16 16 15 15 15 14 14 14 14 14 15 16 17 18 18 19 21 23 24 26 28 29 30
22 22 22 22 22 23 23 23 23 24 23 22 22 22 21 21 20 19 19 18 17 17 17 17 17 17 17 17 17 18 18 19 19 20 21 22 23 24 26 27 29 30 30
23 23 23 24 24 24 25 25 26 26 25 24 23 23 23 23 22 21 21 20 20 19 19 19 19 20 20 20 21 21 22 22 23 23 24 24 25 26 27 28 30 31 33
24 24 24 25 25 26 26 27 27 28 27 26 25 25 25 24 23 23 22 22 22 22 22 22 22 23 23 24 24 25 25 26 27 27 27 28 28 29 30 31 32 33 34
26 26 26 26 27 27 27 28 29 29 28 27 27 27 26 26 25 25 25 25 25 25 25 25 26 26 27 27 27 28 29 29 30 30 31 31 32 32 33 33 34 35 35
27 28 28 28 28 29 29 29 29 29 28 28 28 28 28 28 28 28 28 28 28 28 28 28 29 29 30 30 30 31 31 32 32 33 34 35 35 35 36 36 37 37 38
29 30 30 30 30 30 31 30 30 30 29 30 30 30 30 31 31 31 31 31 31 31 31 32 32 32 33 33 34 35 35 35 36 37 37 38 38 39 39 39 39 40 41
32 32 32 32 32 32 32 32 32 32 32 32 32 32 32 33 33 33 34 34 34 34 34 34 35 35 36 36 37 37 38 39 39 40 41 41 42 42 43 43 43 43 43
34 34 34 34 34 34 34 34 34 34 34 34 35 35 35 35 36 36 36 36 36 36 37 37 38 38 38 39 40 41 41 42 43 44 44 45 45 46 46 46 46 46 46
37 37 37 37 36 36 36 36 36 36 36 36 37 37 37 38 38 38 38 38 38 38 39 40 40 41 41 42 42 43 44 45 45 46 47 47 47 48 48 48 48 48 48
39 39 39 38 38 38 38 37 38 38 38 38 39 39 39 40 40 39 39 40 40 40 41 41 42 42 43 44 45 46 46 47 47 48 49 49 49 49 49 49 49 49 49
40 40 40 40 40 40 39 39 40 40 40 40 40 41 41 41 41 41 41 41 42 42 43 43 44 45 46 46 47 48 49 50 50 50 50 50 50 50 50 50 50 50 50
Wind_Direction
1 3 4 4 4 6 7 8 8 7 7 7 6 7 5 4 359 350 332 289 255 241 235 231 229 228 226 226 227 228 228 228 228 227 226 226 227 229 231 232 233 234 235
359 1 3 4 5 6 7 9 10 10 10 10 9 8 9 7 4 359 352 330 277 253 240 233 229 228 227 226 226 227 229 228 228 229 229 229 229 229 230 231 232 233 235
357 360 1 3 4 6 7 9 10 11 11 11 11 11 12 13 11 9 4 358 331 275 250 239 233 230 229 228 227 228 230 231 229 230 232 231 231 232 232 232 233 234 235
354 357 359 0 3 5 6 8 9 10 11 11 11 12 13 13 12 13 12 7 356 325 281 252 238 231 229 226 227 229 230 231 230 229 230 231 231 232 233 233 233 236 237
350 353 355 358 360 3 5 6 7 8 10 11 11 11 11 12 13 13 12 11 4 346 319 278 246 231 225 225 225 226 228 231 230 228 230 231 231 232 233 233 235 237 237
346 349 351 354 357 360 2 4 5 6 8 9 10 11 12 12 12 12 10 7 4 359 348 316 267 243 229 225 226 227 228 229 230 231 233 234 234 233 233 234 236 238 238
342 345 347 350 353 356 358 1 3 4 5 7 8 8 9 9 9 10 11 11 9 6 360 347 308 261 242 232 229 228 228 230 231 231 234 236 237 235 235 236 237 238 238
339 341 343 346 350 352 354 357 359 1 2 4 5 6 6 6 7 8 10 10 9 5 360 344 312 280 264 250 242 236 232 232 234 235 235 238 237 237 236 237 237 237 239
334 337 340 342 345 348 350 353 355 356 357 358 360 1 2 3 4 7 8 9 9 6 1 354 340 308 280 261 251 244 242 240 239 240 242 243 241 242 242 240 238 238 240
328 332 336 339 341 343 345 347 350 352 352 353 353 355 357 358 359 0 3 4 3 1 356 350 340 325 306 284 264 253 250 248 248 248 247 248 247 246 244 244 244 243 243
323 327 330 334 337 338 340 342 344 347 348 349 349 349 350 351 351 352 353 354 354 353 351 345 337 324 309 293 279 268 261 257 256 253 252 252 251 249 249 248 248 247 246
319 322 326 329 331 334 336 338 339 341 343 344 344 344 345 344 344 344 345 345 344 344 342 339 332 323 311 295 282 275 270 267 264 260 258 257 255 252 253 253 254 253 252
315 318 321 324 326 329 331 334 336 337 338 339 340 340 340 340 340 339 338 338 337 336 334 332 328 321 313 304 289 278 274 273 273 271 268 264 260 257 256 256 256 256 255
311 314 317 319 322 324 326 328 331 332 333 334 335 336 336 336 335 334 333 332 331 329 326 324 322 318 313 307 298 287 280 278 278 276 274 269 265 262 260 260 259 258 258
307 310 313 315 317 319 322 324 325 326 327 328 329 330 331 330 329 328 327 324 323 322 319 317 315 312 309 305 300 293 286 283 280 278 277 274 270 267 264 262 261 260 259
304 306 309 311 313 315 317 319 320 321 321 321 321 322 322 322 321 320 319 318 316 315 313 312 310 308 305 302 298 294 291 287 284 282 281 278 275 272 268 265 263 261 260
300 303 305 307 308 310 312 314 316 316 316 316 316 316 316 315 314 314 312 311 310 308 306 305 304 302 300 298 296 293 291 288 286 283 282 281 279 276 273 270 267 264 263
297 299 301 303 305 306 308 310 312 313 313 312 312 312 312 311 310 309 309 307 306 304 302 301 299 298 297 295 294 292 290 287 285 283 282 281 280 277 275 273 270 268 266
293 296 298 301 302 303 304 306 308 309 309 310 310 310 309 308 307 306 305 304 303 301 300 299 298 297 296 294 293 290 288 287 285 283 282 281 280 279 277 274 271 269 267
291 293 295 297 299 300 301 303 305 306 306 307 307 307 306 306 304 303 303 302 300 299 298 297 297 297 295 294 292 291 289 287 285 283 282 281 280 279 277 275 273 271 269
288 290 292 294 296 298 299 300 302 303 304 304 305 305 304 303 302 301 301 300 299 298 297 296 296 295 295 293 292 290 289 287 286 284 282 281 280 279 278 276 275 272 270
286 289 291 292 294 296 297 298 299 300 301 302 303 303 302 301 301 300 299 298 298 297 297 296 295 294 294 293 292 291 290 288 287 285 283 282 281 280 278 277 276 274 272
285 287 289 291 292 294 295 296 296 298 299 300 301 301 301 301 301 300 299 298 297 297 296 296 296 295 295 294 293 291 290 289 287 286 284 283 281 280 278 277 275 274 272
284 286 288 289 291 292 293 294 295 296 298 299 299 300 300 300 300 300 299 298 298 297 297 297 296 295 295 294 294 293 291 290 288 287 285 284 282 281 279 278 276 274 272
283 285 286 287 289 291 292 293 294 295 296 297 298 298 299 299 299 299 298 298 298 297 297 297 296 296 295 295 294 294 293 292 290 288 287 285 283 282 280 278 276 273 271
282 283 285 286 288 289 291 292 294 295 296 296 297 298 298 298 298 298 298 298 298 298 298 298 297 296 296 296 295 294 293 293 291 290 288 286 284 283 281 278 275 273 270
Height
5810 5805 5800 5795 5790 5784 5779 5773 5767 5762 5756 5752 5747 5743 5739 5735 5732 5729 5728 5728 5728 5730 5732 5734 5737 5740 5744 5748 5752 5757 5761 5767 5772 5777 5783 5788 5793 5798 5803 5808 5812 5816 5820
5809 5805 5800 5795 5790 5785 5779 5774 5768 5763 5758 5753 5748 5744 5740 5736 5732 5730 5728 5727 5727 5728 5730 5731 5734 5736 5739 5743 5747 5752 5756 5761 5766 5771 5776 5781 5786 5791 5796 5801 5805 5809 5813
5809 5805 5800 5796 5791 5785 5780 5775 5770 5764 5759 5754 5750 5745 5741 5737 5734 5731 5728 5727 5727 5727 5728 5729 5731 5733 5736 5739 5743 5747 5751 5756 5761 5765 5770 5775 5780 5784 5789 5793 5798 5802 5805
5808 5804 5800 5796 5791 5786 5781 5776 5771 5766 5761 5756 5751 5747 5743 5739 5735 5732 5730 5728 5727 5727 5727 5727 5728 5730 5732 5736 5739 5743 5747 5751 5756 5760 5764 5769 5773 5777 5782 5786 5791 5794 5798
5807 5803 5800 5795 5791 5786 5782 5777 5772 5767 5762 5758 5753 5749 5745 5741 5737 5734 5731 5729 5728 5727 5726 5726 5727 5728 5730 5733 5736 5739 5743 5747 5751 5755 5759 5763 5767 5771 5775 5779 5783 5787 5791
5806 5802 5799 5795 5791 5786 5782 5777 5773 5768 5764 5759 5755 5750 5746 5743 5739 5735 5732 5730 5728 5727 5726 5726 5726 5727 5729 5731 5733 5736 5739 5742 5746 5750 5753 5757 5760 5764 5768 5772 5776 5780 5783
5804 5801 5797 5794 5790 5786 5782 5777 5773 5769 5764 5760 5756 5752 5748 5744 5740 5737 5734 5731 5729 5728 5727 5726 5726 5727 5728 5729 5731 5733 5736 5738 5742 5745 5748 5751 5754 5758 5761 5765 5768 5771 5775
5802 5799 5796 5792 5789 5785 5781 5777 5773 5769 5765 5761 5757 5753 5749 5745 5742 5738 5735 5732 5730 5728 5727 5727 5726 5726 5727 5728 5729 5731 5733 5735 5738 5741 5743 5746 5748 5751 5754 5757 5760 5763 5766
5800 5797 5794 5790 5787 5783 5780 5776 5772 5769 5765 5761 5757 5753 5750 5746 5742 5739 5736 5733 5731 5729 5728 5727 5726 5726 5726 5727 5727 5729 5730 5732 5734 5736 5738 5740 5743 5745 5747 5750 5752 5755 5758
5797 5794 5791 5788 5785 5782 5778 5775 5771 5768 5764 5760 5756 5753 5750 5746 5743 5740 5737 5734 5732 5730 5728 5727 5726 5725 5725 5725 5725 5726 5727 5729 5730 5732 5734 5735 5737 5738 5741 5743 5745 5747 5749
5794 5791 5788 5786 5782 5779 5776 5773 5770 5766 5763 5759 5756 5752 5749 5746 5742 5739 5737 5734 5732 5730 5728 5726 5725 5724 5724 5723 5723 5724 5724 5725 5726 5727 5729 5730 5731 5732 5734 5736 5738 5740 5742
5790 5788 5785 5782 5780 5777 5774 5771 5767 5764 5761 5757 5754 5751 5747 5744 5741 5738 5736 5733 5731 5729 5727 5726 5724 5723 5722 5722 5722 5722 5722 5722 5722 5723 5723 5724 5725 5726 5728 5729 5730 5732 5733
5786 5784 5781 5779 5776 5773 5771 5768 5765 5761 5758 5755 5751 5748 5745 5742 5739 5737 5734 5732 5730 5728 5726 5724 5723 5722 5721 5720 5719 5719 5718 5718 5718 5718 5718 5719 5719 5720 5721 5722 5723 5724 5726
5782 5779 5777 5775 5772 5770 5767 5764 5761 5758 5755 5752 5749 5746 5743 5740 5737 5735 5732 5730 5728 5726 5724 5722 5721 5720 5718 5717 5716 5715 5715 5714 5714 5714 5714 5713 5713 5714 5714 5715 5716 5717 5718
5776 5774 5772 5770 5767 5765 5763 5760 5757 5754 5751 5748 5745 5742 5740 5737 5734 5732 5730 5727 5725 5723 5721 5720 5718 5717 5715 5714 5713 5712 5711 5710 5709 5709 5708 5708 5708 5707 5707 5708 5708 5709 5710
5771 5769 5767 5765 5762 5760 5757 5755 5752 5750 5747 5744 5741 5738 5736 5733 5730 5728 5726 5724 5722 5720 5718 5716 5714 5712 5711 5710 5708 5707 5706 5705 5704 5703 5702 5701 5700 5700 5700 5700 5700 5700 5700
5765 5763 5761 5759 5756 5754 5752 5749 5746 5744 5741 5738 5736 5733 5731 5728 5726 5723 5721 5719 5717 5715 5713 5711 5709 5707 5706 5704 5703 5701 5700 5698 5697 5696 5695 5694 5693 5692 5691 5691 5690 5690 5691
5758 5757 5755 5753 5750 5748 5745 5743 5740 5737 5734 5732 5729 5727 5725 5722 5720 5718 5715 5713 5711 5709 5707 5705 5703 5701 5699 5697 5696 5694 5692 5691 5689 5688 5687 5686 5684 5683 5682 5681 5680 5680 5680
5751 5750 5748 5746 5744 5741 5739 5736 5734 5731 5728 5725 5722 5720 5718 5715 5713 5711 5709 5707 5704 5702 5700 5698 5696 5694 5691 5689 5687 5685 5684 5682 5680 5679 5677 5676 5674 5673 5672 5670 5669 5669 5669
5743 5742 5740 5739 5736 5734 5732 5729 5726 5724 5721 5718 5715 5713 5710 5708 5705 5703 5701 5698 5696 5694 5691 5689 5687 5685 5682 5680 5678 5675 5673 5671 5670 5668 5666 5665 5663 5662 5660 5659 5658 5657 5657
5735 5734 5732 5730 5728 5726 5724 5721 5718 5716 5713 5710 5708 5705 5702 5700 5697 5694 5692 5689 5687 5684 5682 5679 5677 5674 5672 5669 5667 5664 5662 5660 5658 5656 5654 5652 5650 5649 5647 5646 5645 5644 5644
5726 5725 5723 5721 5719 5717 5715 5712 5710 5707 5705 5702 5699 5696 5693 5691 5688 5685 5682 5679 5677 5674 5671 5669 5666 5663 5660 5658 5655 5652 5649 5647 5644 5642 5640 5638 5636 5634 5633 5632 5630 5630 5629
5716 5715 5713 5711 5709 5707 5705 5702 5700 5698 5695 5692 5689 5687 5684 5681 5678 5675 5672 5669 5666 5663 5660 5657 5654 5651 5648 5645 5642 5639 5636 5633 5630 5627 5625 5623 5620 5618 5617 5615 5614 5613 5612
5706 5704 5702 5701 5699 5697 5694 5692 5690 5687 5685 5682 5679 5676 5673 5670 5667 5663 5660 5657 5654 5650 5647 5644 5641 5637 5634 5630 5627 5624 5620 5617 5614 5611 5608 5605 5603 5601 5599 5597 5596 5595 5594
5694 5693 5691 5690 5688 5686 5684 5681 5679 5676 5674 5671 5668 5665 5661 5658 5655 5651 5648 5645 5641 5638 5634 5631 5627 5623 5620 5616 5612 5608 5604 5600 5597 5593 5590 5587 5585 5582 5580 5579 5577 5576 5575
5682 5681 5680 5678 5676 5674 5672 5670 5667 5665 5662 5659 5656 5653 5649 5646 5642 5639 5635 5632 5628 5624 5620 5616 5612 5608 5604 5600 5596 5591 5587 5583 5579 5575 5571 5568 5565 5563 5561 5559 5558 5557 5556